DW8694 Weather Reports


time (UTC)temp
C
wind
direction
speed
KPH
gust
KPH
rain 1hr
cm
rain 24hr
cm
rain mn
cm
humidity
%
barometer
mb
20260906234528 16 99 0.0 0.0 0.00 0.00 0.03 78 1015.8
20260906233013 16 28 0.0 0.0 0.00 0.00 0.03 78 1015.8
20260906231510 16 69 0.0 0.0 0.00 0.00 0.03 80 1016.0
20260906230024 15 87 0.0 0.0 0.00 0.00 0.03 85 1016.1
20260906224505 15 87 0.0 0.0 0.00 0.00 0.03 87 1016.3
20260906223003 15 87 0.0 0.0 0.00 0.00 0.03 88 1016.5
20260906221504 15 87 0.0 0.0 0.00 0.00 0.03 88 1016.5
20260906220004 15 101 0.0 0.0 0.00 0.00 0.03 89 1016.6
20260906214501 14 55 0.0 0.0 0.00 0.00 0.03 89 1016.6
20260906213106 14 55 0.0 0.0 0.00 0.00 0.03 91 1016.7
20260906211558 14 54 0.0 0.0 0.00 0.00 0.03 89 1016.9
20260906210057 15 134 0.0 0.0 0.00 0.00 0.03 87 1016.9
20260906204557 15 158 0.0 0.0 0.00 0.00 0.03 84 1017.0
20260906203057 15 82 0.0 0.0 0.00 0.00 0.03 84 1017.1
20260906201554 15 82 0.0 0.0 0.00 0.00 0.03 83 1017.2
20260906200054 15 83 0.0 0.0 0.00 0.00 0.03 82 1017.3
20260906194553 15 155 0.0 0.0 0.00 0.00 0.03 82 1017.3
20260906193051 15 158 0.0 0.0 0.00 0.00 0.03 81 1017.4
20260906191603 15 132 0.0 0.0 0.00 0.00 0.03 80 1017.6
20260906190048 15 59 0.0 0.0 0.00 0.00 0.03 81 1017.7
20260906184556 15 105 0.0 0.0 0.00 0.00 0.03 80 1017.8
20260906183047 15 141 0.0 0.0 0.00 0.00 0.00 80 1017.8
20260906181545 15 91 0.0 0.0 0.00 0.00 0.00 80 1017.9
20260906180104 15 87 0.0 0.0 0.00 0.00 0.00 80 1018.2
20260906174543 15 67 0.0 0.0 0.00 0.00 0.00 80 1018.2
20260906173042 15 59 0.0 0.0 0.00 0.00 0.00 81 1018.2
20260906171543 15 179 0.0 0.0 0.00 0.00 0.00 81 1018.1
20260906170037 15 86 0.0 0.0 0.00 0.00 0.00 83 1018.1
20260906164536 14 88 0.0 0.0 0.00 0.00 0.00 83 1018.1
20260906163031 14 196 0.0 0.0 0.00 0.00 0.00 87 1018.4
20260906161528 13 198 0.0 0.0 0.00 0.00 0.00 89 1018.4
20260906160026 13 200 0.0 0.0 0.00 0.00 0.00 90 1018.5
20260906154528 13 136 0.0 0.0 0.00 0.00 0.00 91 1018.3
20260906153023 13 136 0.0 0.0 0.00 0.00 0.00 92 1018.6
20260906151519 12 136 0.0 0.0 0.00 0.00 0.00 93 1018.8
20260906150017 12 136 0.0 0.0 0.00 0.00 0.00 94 1019.1
20260906144516 12 136 0.0 0.0 0.00 0.00 0.00 94 1019.1
20260906143013 12 136 0.0 0.0 0.00 0.00 0.00 95 1019.1
20260906141513 12 136 0.0 0.0 0.00 0.00 0.00 95 1019.1
20260906140012 12 141 0.0 0.0 0.00 0.00 0.00 95 1019.2
20260906134504 12 141 0.0 0.0 0.00 0.00 0.00 95 1019.3
20260906133003 12 141 0.0 0.0 0.00 0.00 0.00 95 1019.3
20260906131503 11 141 0.0 0.0 0.00 0.00 0.00 95 1019.7
20260906130002 11 141 0.0 0.0 0.00 0.00 0.00 95 1019.7
20260906124501 11 141 0.0 0.0 0.00 0.00 0.00 95 1019.6
20260906123101 11 141 0.0 0.0 0.00 0.00 0.00 95 1019.3
20260906121600 11 141 0.0 0.0 0.00 0.00 0.00 95 1019.6
20260906114558 11 141 0.0 0.0 0.00 0.00 0.00 95 1019.3
20260906113057 11 141 0.0 0.0 0.00 0.00 0.00 95 1019.5
20260906111555 11 141 0.0 0.0 0.00 0.00 0.00 95 1019.8
20260906110053 11 141 0.0 0.0 0.00 0.00 0.00 95 1019.9
20260906104551 11 141 0.0 0.0 0.00 0.00 0.00 95 1020.1
20260906103050 11 141 0.0 0.0 0.00 0.00 0.00 94 1020.3
20260906101555 11 141 0.0 0.0 0.00 0.00 0.00 94 1020.3
20260906100048 11 141 0.0 0.0 0.00 0.00 0.00 94 1020.3
20260906094548 11 141 0.0 0.0 0.00 0.00 0.00 94 1020.4
20260906093056 11 141 0.0 0.0 0.00 0.00 0.00 94 1020.4
20260906091545 11 141 0.0 0.0 0.00 0.00 0.00 94 1020.5
20260906090044 11 141 0.0 0.0 0.00 0.00 0.00 93 1020.8
20260906084550 11 141 0.0 0.0 0.00 0.00 0.00 93 1021.1
20260906083042 11 141 0.0 0.0 0.00 0.00 0.00 93 1020.9
20260906081540 11 141 0.0 0.0 0.00 0.00 0.00 93 1021.1
20260906080051 11 141 0.0 0.0 0.00 0.00 0.00 93 1021.1
20260906074542 11 141 0.0 0.0 0.00 0.00 0.00 93 1021.1
20260906073038 11 141 0.0 0.0 0.00 0.00 0.00 93 1021.2
20260906071536 11 141 0.0 0.0 0.00 0.00 0.00 93 1021.4
20260906070039 11 141 0.0 0.0 0.00 0.00 0.00 92 1021.4
20260906064537 11 141 0.0 0.0 0.00 0.00 0.00 92 1021.5
20260906063035 11 141 0.0 0.0 0.00 0.00 0.00 92 1021.3
20260906061538 11 141 0.0 0.0 0.00 0.00 0.00 92 1021.4
20260906060036 11 141 0.0 0.0 0.00 0.00 0.00 92 1021.5
20260906054531 11 141 0.0 0.0 0.00 0.00 0.03 92 1021.5
20260906053031 11 141 0.0 0.0 0.00 0.00 0.03 92 1021.5
20260906051530 11 141 0.0 0.0 0.00 0.00 0.03 91 1021.5
20260906050029 11 156 0.0 0.0 0.00 0.00 0.03 91 1021.4
20260906044533 11 156 0.0 0.0 0.00 0.00 0.03 91 1021.3
20260906043030 11 156 0.0 0.0 0.00 0.00 0.03 91 1021.3
20260906041538 11 156 0.0 0.0 0.00 0.00 0.03 91 1021.3
20260906040027 11 156 0.0 0.0 0.00 0.00 0.03 91 1021.4
20260906034530 11 156 0.0 0.0 0.00 0.00 0.03 91 1021.3
20260906033030 11 156 0.0 0.0 0.00 0.00 0.03 90 1021.3
20260906031526 11 156 0.0 0.0 0.00 0.00 0.03 90 1021.4
20260906030026 11 156 0.0 0.0 0.00 0.00 0.03 90 1021.4
20260906024524 12 156 0.0 0.0 0.00 0.00 0.03 92 1021.4
20260906023024 12 156 0.0 0.0 0.00 0.00 0.03 89 1021.2
20260906021523 12 156 0.0 0.0 0.00 0.00 0.03 89 1021.1
20260906020022 12 156 0.0 0.0 0.00 0.00 0.03 89 1021.0
20260906014524 12 156 0.0 0.0 0.00 0.00 0.03 88 1021.0
20260906013021 12 156 0.0 0.0 0.00 0.00 0.03 88 1020.8
20260906011520 12 156 0.0 0.0 0.00 0.00 0.03 87 1020.8
20260906010020 12 156 0.0 0.0 0.00 0.00 0.03 87 1020.8
20260906004519 12 156 0.0 0.0 0.00 0.00 0.03 87 1020.8
20260906003019 12 156 0.0 0.0 0.00 0.00 0.03 86 1020.7
20260906001517 12 156 0.0 0.0 0.00 0.00 0.03 86 1020.7
20260906000018 12 156 0.0 0.0 0.00 0.00 0.03 86 1020.6